Location: Stoke Bliss
(52.2667°N, 2.5167°W)
Time: 19:09:48
(UTC+00:00)

Cosmos 2369 Rocket - Pass Details

Date: 03 March 2021
Orbit: 829 x 852 km, 71.0° (Epoch: 17 April)

Event Time Altitude Azimuth Distance (km) Brightness Sun altitude
Rises 19:42:02 0° 323° (NW) 3,383 6.1 -17.3°
Reaches altitude 10° 19:45:50 10° 348° (NNW) 2,448 4.9 -17.9°
Maximum altitude 19:48:39 14° 19° (NNE) 2,185 4.3 -18.3°
Enters shadow 19:51:04 11° 46° (NE) 2,380 4.2 -18.7°
